Weather History for Madison, MN

Change the Weather History Date:

Wednesday, January 23, 2013

  Actual Average (KAQP) Record (KAQP)
Temperature  
Mean Temperature 0 °F -  
Max Temperature 10 °F 17 °F 37 °F (2006)
Min Temperature -9 °F 2 °F -23 °F (2011)
Degree Days  
Heating Degree Days 64    
Moisture  
Dew Point -3 °F    
Average Humidity 74    
Maximum Humidity 92    
Minimum Humidity 59    
Precipitation  
Precipitation 0.00 in - - ()
Sea Level Pressure  
Sea Level Pressure 30.34 in    
Wind  
Wind Speed 9 mph (NNW)    
Max Wind Speed 25 mph    
Max Gust Speed 32 mph    
Visibility 8 miles    
Events Snow    
Averages and records for this station are not official NWS values.
T = Trace of Precipitation, MM = Missing Value Source: NWS Daily Summary

Daily Weather History Graph

Daily Weather History Graph

Search for Another Location

Airport:

Trip Planner

Search our weather history database for the weather conditions in past years. The results will help you decide how hot, cold, wet, or windy it might be!

Date:

Astronomy

Jan. 23, 2013 Rise Set
Actual Time 7:53 AM CST 5:20 PM CST
Civil Twilight 7:21 AM CST 5:52 PM CST
Nautical Twilight 6:45 AM CST 6:28 PM CST
Astronomical Twilight 6:10 AM CST 7:03 PM CST
Moon 2:29 PM CST (1/23) 5:07 AM CST (1/23)
Length of Visible Light 10h 31m
Length of Day
9h 27m
Waxing Gibbous, 89% of the Moon is Illuminated
Jan 23
Waxing Gibbous
Jan 26
Full
Feb 3
Last Quarter
Feb 10
New
Feb 17
First Quarter

Hourly Weather History & Observations

Time (CST) Temp. Windchill Dew Point Humidity Pressure Visibility Wind Dir Wind Speed Gust Speed Precip Events Conditions
12:14 AM 8.6 °F 2.0 °F 3.2 °F 79% 30.17 in 4.0 mi SSE 3.5 mph - N/A Snow Light Snow
12:34 AM 8.6 °F 2.0 °F 3.2 °F 79% 30.17 in 5.0 mi SSE 3.5 mph - N/A Snow Light Snow
12:54 AM 8.6 °F 2.0 °F 5.0 °F 85% 30.16 in 5.0 mi South 3.5 mph - N/A Snow Light Snow
1:14 AM 8.6 °F - 5.0 °F 85% 30.16 in 7.0 mi Calm Calm - N/A Snow Light Snow
1:34 AM 10.4 °F - 6.8 °F 85% 30.15 in 10.0 mi Calm Calm - N/A Snow Light Snow
1:54 AM 10.4 °F - 6.8 °F 85% 30.15 in 7.0 mi Calm Calm - N/A Snow Light Snow
2:14 AM 10.4 °F - 6.8 °F 85% 30.15 in 5.0 mi Calm Calm - N/A Snow Light Snow
2:34 AM 10.4 °F - 6.8 °F 85% 30.15 in 5.0 mi Calm Calm - N/A Snow Light Snow
2:54 AM 10.4 °F - 6.8 °F 85% 30.14 in 5.0 mi Calm Calm - N/A Snow Light Snow
3:14 AM 10.4 °F - 6.8 °F 85% 30.15 in 10.0 mi Calm Calm - N/A   Overcast
3:34 AM 10.4 °F - 6.8 °F 85% 30.14 in 7.0 mi Calm Calm - N/A Snow Light Snow
3:54 AM 8.6 °F - 6.8 °F 92% 30.14 in 10.0 mi Calm Calm - N/A Snow Light Snow
4:14 AM 8.6 °F - 5.0 °F 85% 30.15 in 10.0 mi Calm Calm - N/A   Clear
4:33 AM 6.8 °F -0.1 °F 3.2 °F 85% 30.15 in 10.0 mi WSW 3.5 mph - N/A   Clear
4:54 AM 6.8 °F - 3.2 °F 85% 30.15 in 10.0 mi Calm Calm - N/A   Clear
5:14 AM 5.0 °F - 1.4 °F 85% 30.14 in 10.0 mi Calm Calm - N/A   Clear
5:33 AM 6.8 °F -0.1 °F 3.2 °F 85% 30.14 in 10.0 mi West 3.5 mph - N/A   Clear
5:54 AM 6.8 °F -2.0 °F 3.2 °F 85% 30.15 in 10.0 mi West 4.6 mph - N/A   Clear
6:14 AM 6.8 °F -2.0 °F 3.2 °F 85% 30.15 in 10.0 mi West 4.6 mph - N/A   Clear
6:33 AM 6.8 °F -2.0 °F 1.4 °F 79% 30.16 in 10.0 mi WNW 4.6 mph - N/A   Clear
6:54 AM 6.8 °F -3.5 °F 1.4 °F 79% 30.17 in 10.0 mi WNW 5.8 mph - N/A   Clear
7:14 AM 8.6 °F -3.7 °F 3.2 °F 79% 30.18 in 10.0 mi NW 8.1 mph - N/A   Scattered Clouds
7:33 AM 8.6 °F -6.3 °F 6.8 °F 92% 30.19 in 10.0 mi NW 11.5 mph - N/A   Mostly Cloudy
7:54 AM 8.6 °F -8.3 °F 6.8 °F 92% 30.20 in 10.0 mi NW 15.0 mph 19.6 mph N/A   Clear
8:14 AM 8.6 °F -7.7 °F 5.0 °F 85% 30.21 in 10.0 mi NW 13.8 mph - N/A   Clear
8:33 AM 8.6 °F -8.3 °F 3.2 °F 79% 30.21 in 10.0 mi NW 15.0 mph - N/A   Clear
8:54 AM 8.6 °F -10.0 °F 3.2 °F 79% 30.23 in 10.0 mi NNW 18.4 mph 23.0 mph N/A   Clear
9:14 AM 8.6 °F -10.5 °F 3.2 °F 79% 30.24 in 5.0 mi NNW 19.6 mph 23.0 mph N/A Snow Light Snow
9:33 AM 8.6 °F -9.5 °F 1.4 °F 73% 30.26 in 7.0 mi NNW 17.3 mph 26.5 mph N/A Snow Light Snow
9:54 AM 8.6 °F -10.0 °F 1.4 °F 73% 30.27 in 5.0 mi NNW 18.4 mph - N/A   Haze
10:14 AM 8.6 °F -10.5 °F 1.4 °F 73% 30.28 in 10.0 mi NNW 19.6 mph 25.3 mph N/A   Clear
10:33 AM 6.8 °F -14.7 °F 1.4 °F 79% 30.30 in 7.0 mi NNW 24.2 mph 28.8 mph N/A   Clear
10:54 AM 6.8 °F -14.7 °F 1.4 °F 79% 30.31 in 5.0 mi NNW 24.2 mph - N/A   Haze
11:14 AM 6.8 °F -14.3 °F -0.4 °F 72% 30.33 in 3.0 mi North 23.0 mph 29.9 mph N/A   Haze
11:34 AM 6.8 °F -14.7 °F -0.4 °F 72% 30.34 in 5.0 mi NNW 24.2 mph 31.1 mph N/A   Haze
11:54 AM 6.8 °F -13.4 °F -2.2 °F 67% 30.34 in 10.0 mi NNW 20.7 mph - N/A   Clear
12:13 PM 6.8 °F -14.7 °F -2.2 °F 67% 30.34 in 10.0 mi NNW 24.2 mph 28.8 mph N/A   Clear
12:34 PM 6.8 °F -15.1 °F -2.2 °F 67% 30.36 in 10.0 mi NNW 25.3 mph 28.8 mph N/A   Clear
12:53 PM 5.0 °F -14.7 °F -4.0 °F 66% 30.36 in 10.0 mi North 18.4 mph 26.5 mph N/A   Clear
1:14 PM 5.0 °F -17.5 °F -4.0 °F 66% 30.36 in 7.0 mi North 25.3 mph 32.2 mph N/A   Clear
1:34 PM 3.2 °F -18.1 °F -4.0 °F 72% 30.37 in 5.0 mi North 20.7 mph 29.9 mph N/A   Haze
1:53 PM 3.2 °F -18.1 °F -2.2 °F 78% 30.38 in 5.0 mi NNW 20.7 mph 26.5 mph N/A   Haze
2:14 PM 3.2 °F -19.9 °F -4.0 °F 72% 30.39 in 5.0 mi NNW 25.3 mph 31.1 mph N/A   Haze
2:34 PM 3.2 °F -19.9 °F -5.8 °F 66% 30.41 in 5.0 mi NNW 25.3 mph - N/A   Haze
2:53 PM 3.2 °F -19.0 °F -5.8 °F 66% 30.42 in 4.0 mi North 23.0 mph 32.2 mph N/A   Haze
3:14 PM 3.2 °F -19.0 °F -7.6 °F 61% - 7.0 mi NNW 23.0 mph 31.1 mph N/A   Clear
3:34 PM 1.4 °F -21.9 °F -7.6 °F 66% 30.45 in 7.0 mi North 24.2 mph 28.8 mph N/A   Clear
3:53 PM 1.4 °F -21.0 °F -9.4 °F 61% 30.45 in 10.0 mi North 21.9 mph 29.9 mph N/A   Clear
4:14 PM 1.4 °F -20.5 °F -9.4 °F 61% 30.47 in 10.0 mi North 20.7 mph 31.1 mph N/A   Clear
4:34 PM 1.4 °F -21.0 °F -9.4 °F 61% 30.48 in 10.0 mi North 21.9 mph - N/A   Clear
4:53 PM -0.4 °F -22.8 °F -11.2 °F 60% 30.49 in 10.0 mi North 20.7 mph 28.8 mph N/A   Clear
5:14 PM -0.4 °F -21.2 °F -9.4 °F 66% 30.51 in 10.0 mi North 17.3 mph - N/A   Clear
5:34 PM -2.2 °F -24.1 °F -11.2 °F 66% 30.52 in 10.0 mi North 18.4 mph 24.2 mph N/A   Clear
5:53 PM -2.2 °F -23.5 °F -11.2 °F 66% 30.52 in 10.0 mi North 17.3 mph 23.0 mph N/A   Clear
6:14 PM -2.2 °F -23.5 °F -11.2 °F 66% 30.54 in 10.0 mi North 17.3 mph - N/A   Clear
6:34 PM -4.0 °F -23.0 °F -9.4 °F 78% 30.53 in 5.0 mi North 12.7 mph - N/A   Haze
6:53 PM -4.0 °F -25.2 °F -11.2 °F 71% 30.54 in 10.0 mi North 16.1 mph 20.7 mph N/A   Clear
7:14 PM -5.8 °F -25.2 °F -13.0 °F 71% 30.55 in 10.0 mi North 12.7 mph - N/A   Clear
7:34 PM -5.8 °F -27.5 °F -14.8 °F 65% 30.55 in 10.0 mi North 16.1 mph - N/A   Clear
7:54 PM -5.8 °F -26.0 °F -13.0 °F 71% 30.56 in 10.0 mi North 13.8 mph - N/A   Clear
8:13 PM -5.8 °F -24.4 °F -13.0 °F 71% 30.57 in 10.0 mi North 11.5 mph - N/A   Clear
8:34 PM -5.8 °F -23.4 °F -13.0 °F 71% 30.57 in 10.0 mi North 10.4 mph - N/A   Clear
9:13 PM -7.6 °F -29.1 °F -14.8 °F 71% 30.58 in 10.0 mi North 15.0 mph - N/A   Clear
9:34 PM -7.6 °F -29.1 °F -16.6 °F 65% 30.58 in 10.0 mi North 15.0 mph - N/A   Clear
9:54 PM -7.6 °F -25.7 °F -18.4 °F 59% 30.60 in 10.0 mi North 10.4 mph - N/A   Clear
10:13 PM -7.6 °F -24.6 °F -18.4 °F 59% 30.61 in 10.0 mi North 9.2 mph - N/A   Clear
10:34 PM -9.4 °F -28.9 °F -18.4 °F 65% 30.61 in 10.0 mi North 11.5 mph - N/A   Clear
10:53 PM -9.4 °F -28.9 °F -18.4 °F 65% 30.61 in 10.0 mi North 11.5 mph - N/A   Clear
11:14 PM -9.4 °F -27.9 °F -18.4 °F 65% 30.62 in 10.0 mi North 10.4 mph - N/A   Clear
11:53 PM -9.4 °F -26.8 °F -18.4 °F 65% 30.63 in 10.0 mi NNW 9.2 mph - N/A   Clear